Year,Month,Day,Hour,Minute,Value (Times are PST for windspeed in km/hr)
2016,03,13,00,00,4.20
2016,03,13,00,01,4.80
2016,03,13,00,02,5.30
2016,03,13,00,03,6.00
2016,03,13,00,04,5.90
2016,03,13,00,05,5.70
2016,03,13,00,06,6.80
2016,03,13,00,07,5.90
2016,03,13,00,08,6.80
2016,03,13,00,09,5.80
2016,03,13,00,10,4.90
2016,03,13,00,11,4.10
2016,03,13,00,12,3.10
2016,03,13,00,13,4.20
2016,03,13,00,14,3.60
2016,03,13,00,15,3.90
2016,03,13,00,16,3.80
2016,03,13,00,17,3.30
2016,03,13,00,18,2.20
2016,03,13,00,19,3.60
2016,03,13,00,20,2.30
2016,03,13,00,21,3.70
2016,03,13,00,22,3.80
2016,03,13,00,23,3.40
2016,03,13,00,24,3.90
2016,03,13,00,25,2.70
2016,03,13,00,26,2.30
2016,03,13,00,27,2.70
2016,03,13,00,28,2.90
2016,03,13,00,29,2.70
2016,03,13,00,30,2.60
2016,03,13,00,31,2.80
2016,03,13,00,32,3.90
2016,03,13,00,33,2.80
2016,03,13,00,34,3.70
2016,03,13,00,35,4.50
2016,03,13,00,36,5.40
2016,03,13,00,37,5.70
2016,03,13,00,38,5.20
2016,03,13,00,39,4.30
2016,03,13,00,40,4.90
2016,03,13,00,41,6.00
2016,03,13,00,42,6.70
2016,03,13,00,43,5.60
2016,03,13,00,44,4.40
2016,03,13,00,45,4.20
2016,03,13,00,46,4.70
2016,03,13,00,47,3.50
2016,03,13,00,48,3.30
2016,03,13,00,49,3.80
2016,03,13,00,50,4.50
2016,03,13,00,51,4.50
2016,03,13,00,52,6.00
2016,03,13,00,53,5.30
2016,03,13,00,54,5.40
2016,03,13,00,55,4.50
2016,03,13,00,56,3.70
2016,03,13,00,57,3.70
2016,03,13,00,58,4.80
2016,03,13,00,59,4.70
2016,03,13,01,00,4.60
2016,03,13,01,01,5.20
2016,03,13,01,02,4.50
2016,03,13,01,03,3.00
2016,03,13,01,04,3.40
2016,03,13,01,05,3.10
2016,03,13,01,06,2.80
2016,03,13,01,07,3.00
2016,03,13,01,08,3.40
2016,03,13,01,09,3.60
2016,03,13,01,10,4.30
2016,03,13,01,11,3.70
2016,03,13,01,12,4.70
2016,03,13,01,13,4.20
2016,03,13,01,14,4.10
2016,03,13,01,15,4.50
2016,03,13,01,16,3.70
2016,03,13,01,17,1.70
2016,03,13,01,18,1.10
2016,03,13,01,19,1.30
2016,03,13,01,20,3.10
2016,03,13,01,21,7.80
2016,03,13,01,22,4.60
2016,03,13,01,23,6.20
2016,03,13,01,24,4.00
2016,03,13,01,25,2.60
2016,03,13,01,26,3.90
2016,03,13,01,27,0.40
2016,03,13,01,28,0.50
2016,03,13,01,29,1.30
2016,03,13,01,30,1.60
2016,03,13,01,31,1.80
2016,03,13,01,32,0.90
2016,03,13,01,33,0.30
2016,03,13,01,34,1.10
2016,03,13,01,35,1.40
2016,03,13,01,36,1.80
2016,03,13,01,37,0.80
2016,03,13,01,38,1.30
2016,03,13,01,39,1.50
2016,03,13,01,40,1.50
2016,03,13,01,41,1.30
2016,03,13,01,42,0.20
2016,03,13,01,43,1.30
2016,03,13,01,44,0.40
2016,03,13,01,45,2.00
2016,03,13,01,46,4.70
2016,03,13,01,47,5.10
2016,03,13,01,48,3.70
2016,03,13,01,49,2.30
2016,03,13,01,50,3.20
2016,03,13,01,51,5.60
2016,03,13,01,52,4.50
2016,03,13,01,53,1.00
2016,03,13,01,54,2.50
2016,03,13,01,55,3.80
2016,03,13,01,56,4.60
2016,03,13,01,57,7.40
2016,03,13,01,58,8.00
2016,03,13,01,59,7.10
2016,03,13,03,00,1.90
2016,03,13,03,01,2.20
2016,03,13,03,02,1.30
2016,03,13,03,03,0.70
2016,03,13,03,04,0.00
2016,03,13,03,05,0.50
2016,03,13,03,06,1.00
2016,03,13,03,07,0.40
2016,03,13,03,08,1.90
2016,03,13,03,09,0.80
2016,03,13,03,10,1.50
2016,03,13,03,11,0.80
2016,03,13,03,12,2.40
2016,03,13,03,13,2.50
2016,03,13,03,14,2.20
2016,03,13,03,15,3.50
2016,03,13,03,16,2.30
2016,03,13,03,17,0.40
2016,03,13,03,18,0.90
2016,03,13,03,19,0.10
2016,03,13,03,20,0.40
2016,03,13,03,21,1.40
2016,03,13,03,22,0.50
2016,03,13,03,23,0.60
2016,03,13,03,24,1.20
2016,03,13,03,25,1.00
2016,03,13,03,26,1.70
2016,03,13,03,27,1.90
2016,03,13,03,28,2.50
2016,03,13,03,29,1.00
2016,03,13,03,30,0.50
2016,03,13,03,31,0.90
2016,03,13,03,32,0.90
2016,03,13,03,33,0.80
2016,03,13,03,34,0.70
2016,03,13,03,35,2.30
2016,03,13,03,36,1.90
2016,03,13,03,37,0.40
2016,03,13,03,38,1.30
2016,03,13,03,39,1.00
2016,03,13,03,40,1.00
2016,03,13,03,41,1.20
2016,03,13,03,42,0.70
2016,03,13,03,43,1.40
2016,03,13,03,44,1.20
2016,03,13,03,45,1.00
2016,03,13,03,46,1.10
2016,03,13,03,47,0.70
2016,03,13,03,48,0.80
2016,03,13,03,49,1.60
2016,03,13,03,50,1.80
2016,03,13,03,51,0.80
2016,03,13,03,52,1.90
2016,03,13,03,53,3.00
2016,03,13,03,54,3.10
2016,03,13,03,55,1.30
2016,03,13,03,56,1.00
2016,03,13,03,57,0.80
2016,03,13,03,58,1.00
2016,03,13,03,59,2.00
2016,03,13,04,00,2.90
2016,03,13,04,01,3.30
2016,03,13,04,02,4.30
2016,03,13,04,03,5.40
2016,03,13,04,04,4.10
2016,03,13,04,05,4.60
2016,03,13,04,06,2.90
2016,03,13,04,07,2.80
2016,03,13,04,08,3.00
2016,03,13,04,09,2.80
2016,03,13,04,10,6.80
2016,03,13,04,11,2.50
2016,03,13,04,12,4.20
2016,03,13,04,13,5.80
2016,03,13,04,14,9.50
2016,03,13,04,15,9.20
2016,03,13,04,16,6.10
2016,03,13,04,17,11.20
2016,03,13,04,18,15.10
2016,03,13,04,19,11.20
2016,03,13,04,20,15.10
2016,03,13,04,21,16.90
2016,03,13,04,22,16.30
2016,03,13,04,23,15.30
2016,03,13,04,24,8.00
2016,03,13,04,25,10.40
2016,03,13,04,26,10.80
2016,03,13,04,27,11.60
2016,03,13,04,28,10.20
2016,03,13,04,29,19.40
2016,03,13,04,30,17.60
2016,03,13,04,31,17.60
2016,03,13,04,32,13.80
2016,03,13,04,33,15.80
2016,03,13,04,34,22.70
2016,03,13,04,35,16.90
2016,03,13,04,36,22.70
2016,03,13,04,37,21.40
2016,03,13,04,38,25.00
2016,03,13,04,39,21.80
2016,03,13,04,40,26.40
2016,03,13,04,41,28.70
2016,03,13,04,42,21.40
2016,03,13,04,43,22.30
2016,03,13,04,44,23.80
2016,03,13,04,45,25.40
2016,03,13,04,46,18.40
2016,03,13,04,47,14.30
2016,03,13,04,48,20.80
2016,03,13,04,49,21.20
2016,03,13,04,50,27.20
2016,03,13,04,51,17.40
2016,03,13,04,52,17.80
2016,03,13,04,53,15.20
2016,03,13,04,54,14.90
2016,03,13,04,55,18.90
2016,03,13,04,56,20.30
2016,03,13,04,57,14.70
2016,03,13,04,58,19.70
2016,03,13,04,59,21.60
2016,03,13,05,00,14.20
2016,03,13,05,01,20.20
2016,03,13,05,02,22.10
2016,03,13,05,03,11.30
2016,03,13,05,04,11.40
2016,03,13,05,05,22.20
2016,03,13,05,06,19.90
2016,03,13,05,07,22.00
2016,03,13,05,08,17.30
2016,03,13,05,09,19.60
2016,03,13,05,10,19.20
2016,03,13,05,11,18.80
2016,03,13,05,12,22.00
2016,03,13,05,13,16.50
2016,03,13,05,14,17.30
2016,03,13,05,15,21.00
2016,03,13,05,16,16.40
2016,03,13,05,17,18.80
2016,03,13,05,18,22.10
2016,03,13,05,19,11.90
2016,03,13,05,20,23.60
2016,03,13,05,21,19.20
2016,03,13,05,22,18.30
2016,03,13,05,23,24.00
2016,03,13,05,24,29.80
2016,03,13,05,25,22.20
2016,03,13,05,26,26.10
2016,03,13,05,27,27.40
2016,03,13,05,28,25.20
2016,03,13,05,29,20.80
2016,03,13,05,30,18.90
2016,03,13,05,31,24.60
2016,03,13,05,32,24.10
2016,03,13,05,33,23.40
2016,03,13,05,34,22.20
2016,03,13,05,35,19.90
2016,03,13,05,36,22.40
2016,03,13,05,37,19.90
2016,03,13,05,38,19.40
2016,03,13,05,39,19.70
2016,03,13,05,40,17.80
2016,03,13,05,41,19.90
2016,03,13,05,42,24.50
2016,03,13,05,43,20.30
2016,03,13,05,44,14.80
2016,03,13,05,45,15.20
2016,03,13,05,46,16.20
2016,03,13,05,47,21.00
2016,03,13,05,48,26.90
2016,03,13,05,49,23.90
2016,03,13,05,50,23.00
2016,03,13,05,51,22.10
2016,03,13,05,52,21.30
2016,03,13,05,53,17.30
2016,03,13,05,54,23.50
2016,03,13,05,55,29.70
2016,03,13,05,56,25.80
2016,03,13,05,57,18.80
2016,03,13,05,58,16.70
2016,03,13,05,59,31.50
2016,03,13,06,00,20.00
2016,03,13,06,01,24.70
2016,03,13,06,02,22.00
2016,03,13,06,03,20.60
2016,03,13,06,04,21.60
2016,03,13,06,05,27.60
2016,03,13,06,06,23.40
2016,03,13,06,07,29.50
2016,03,13,06,08,24.10
2016,03,13,06,09,21.10
2016,03,13,06,10,25.70
2016,03,13,06,11,24.40
2016,03,13,06,12,19.10
2016,03,13,06,13,23.50
2016,03,13,06,14,17.90
2016,03,13,06,15,20.60
2016,03,13,06,16,30.60
2016,03,13,06,17,23.40
2016,03,13,06,18,24.40
2016,03,13,06,19,15.80
2016,03,13,06,20,23.30
2016,03,13,06,21,32.70
2016,03,13,06,22,23.90
2016,03,13,06,23,20.30
2016,03,13,06,24,29.60
2016,03,13,06,25,28.60
2016,03,13,06,26,22.40
2016,03,13,06,27,24.70
2016,03,13,06,28,23.30
2016,03,13,06,29,27.00
2016,03,13,06,30,26.70
2016,03,13,06,31,21.40
2016,03,13,06,32,20.90
2016,03,13,06,33,22.80
2016,03,13,06,34,20.90
2016,03,13,06,35,20.60
2016,03,13,06,36,23.20
2016,03,13,06,37,24.10
2016,03,13,06,38,29.30
2016,03,13,06,39,26.50
2016,03,13,06,40,26.10
2016,03,13,06,41,23.00
2016,03,13,06,42,19.70
2016,03,13,06,43,12.30
2016,03,13,06,44,25.10
2016,03,13,06,45,29.50
2016,03,13,06,46,20.60
2016,03,13,06,47,21.40
2016,03,13,06,48,24.30
2016,03,13,06,49,15.70
2016,03,13,06,50,20.30
2016,03,13,06,51,15.40
2016,03,13,06,52,21.50
2016,03,13,06,53,24.90
2016,03,13,06,54,21.20
2016,03,13,06,55,23.20
2016,03,13,06,56,21.70
2016,03,13,06,57,17.50
2016,03,13,06,58,26.20
2016,03,13,06,59,25.00
2016,03,13,07,00,22.20
2016,03,13,07,01,15.00
2016,03,13,07,02,15.70
2016,03,13,07,03,19.90
2016,03,13,07,04,19.10
2016,03,13,07,05,14.90
2016,03,13,07,06,11.30
2016,03,13,07,07,22.60
2016,03,13,07,08,17.30
2016,03,13,07,09,28.10
2016,03,13,07,10,23.40
2016,03,13,07,11,16.00
2016,03,13,07,12,13.40
2016,03,13,07,13,23.10
2016,03,13,07,14,25.50
2016,03,13,07,15,23.80
2016,03,13,07,16,17.60
2016,03,13,07,17,19.90
2016,03,13,07,18,18.80
2016,03,13,07,19,22.50
2016,03,13,07,20,24.90
2016,03,13,07,21,19.20
2016,03,13,07,22,22.90
2016,03,13,07,23,20.00
2016,03,13,07,24,22.30
2016,03,13,07,25,15.80
2016,03,13,07,26,17.60
2016,03,13,07,27,24.80
2016,03,13,07,28,25.00
2016,03,13,07,29,18.10
2016,03,13,07,30,15.70
2016,03,13,07,31,24.60
2016,03,13,07,32,22.30
2016,03,13,07,33,18.40
2016,03,13,07,34,18.30
2016,03,13,07,35,16.90
2016,03,13,07,36,12.60
2016,03,13,07,37,9.10
2016,03,13,07,38,13.60
2016,03,13,07,39,21.50
2016,03,13,07,40,18.30
2016,03,13,07,41,19.80
2016,03,13,07,42,22.20
2016,03,13,07,43,24.30
2016,03,13,07,44,20.60
2016,03,13,07,45,29.10
2016,03,13,07,46,26.20
2016,03,13,07,47,21.60
2016,03,13,07,48,18.10
2016,03,13,07,49,17.20
2016,03,13,07,50,19.30
2016,03,13,07,51,16.50
2016,03,13,07,52,24.80
2016,03,13,07,53,20.90
2016,03,13,07,54,18.70
2016,03,13,07,55,23.90
2016,03,13,07,56,16.30
2016,03,13,07,57,19.50
2016,03,13,07,58,17.60
2016,03,13,07,59,23.60
2016,03,13,08,00,23.40
2016,03,13,08,01,20.90
2016,03,13,08,02,21.30
2016,03,13,08,03,24.20
2016,03,13,08,04,23.30
2016,03,13,08,05,16.90
2016,03,13,08,06,26.70
2016,03,13,08,07,28.70
2016,03,13,08,08,20.80
2016,03,13,08,09,17.70
2016,03,13,08,10,18.50
2016,03,13,08,11,26.60
2016,03,13,08,12,31.70
2016,03,13,08,13,17.30
2016,03,13,08,14,18.70
2016,03,13,08,15,28.80
2016,03,13,08,16,16.70
2016,03,13,08,17,14.10
2016,03,13,08,18,26.40
2016,03,13,08,19,21.80
2016,03,13,08,20,19.20
2016,03,13,08,21,18.50
2016,03,13,08,22,15.70
2016,03,13,08,23,13.30
2016,03,13,08,24,16.70
2016,03,13,08,25,24.70
2016,03,13,08,26,22.60
2016,03,13,08,27,22.70
2016,03,13,08,28,23.90
2016,03,13,08,29,23.90
2016,03,13,08,30,22.00
2016,03,13,08,31,25.80
2016,03,13,08,32,26.20
2016,03,13,08,33,25.80
2016,03,13,08,34,21.50
2016,03,13,08,35,22.40
2016,03,13,08,36,19.50
2016,03,13,08,37,17.40
2016,03,13,08,38,18.80
2016,03,13,08,39,13.80
2016,03,13,08,40,11.80
2016,03,13,08,41,11.40
2016,03,13,08,42,12.20
2016,03,13,08,43,18.10
2016,03,13,08,44,12.70
2016,03,13,08,45,9.00
2016,03,13,08,46,12.20
2016,03,13,08,47,21.90
2016,03,13,08,48,14.30
2016,03,13,08,49,12.70
2016,03,13,08,50,15.50
2016,03,13,08,51,17.60
2016,03,13,08,52,15.70
2016,03,13,08,53,15.70
2016,03,13,08,54,13.60
2016,03,13,08,55,17.10
2016,03,13,08,56,16.20
2016,03,13,08,57,12.00
2016,03,13,08,58,11.40
2016,03,13,08,59,17.10
2016,03,13,09,00,11.40
2016,03,13,09,01,14.30
2016,03,13,09,02,12.70
2016,03,13,09,03,14.60
2016,03,13,09,04,18.00
2016,03,13,09,05,22.00
2016,03,13,09,06,20.40
2016,03,13,09,07,13.70
2016,03,13,09,08,13.20
2016,03,13,09,09,16.40
2016,03,13,09,10,11.40
2016,03,13,09,11,8.10
2016,03,13,09,12,15.10
2016,03,13,09,13,15.70
2016,03,13,09,14,16.50
2016,03,13,09,15,13.60
2016,03,13,09,16,12.20
2016,03,13,09,17,14.80
2016,03,13,09,18,14.00
2016,03,13,09,19,7.80
2016,03,13,09,20,12.00
2016,03,13,09,21,13.10
2016,03,13,09,22,14.60
2016,03,13,09,23,13.60
2016,03,13,09,24,14.60
2016,03,13,09,25,13.80
2016,03,13,09,26,15.30
2016,03,13,09,27,15.60
2016,03,13,09,28,23.60
2016,03,13,09,29,21.40
2016,03,13,09,30,14.40
2016,03,13,09,31,14.80
2016,03,13,09,32,13.80
2016,03,13,09,33,23.70
2016,03,13,09,34,15.30
2016,03,13,09,35,23.70
2016,03,13,09,36,18.20
2016,03,13,09,37,21.00
2016,03,13,09,38,16.00
2016,03,13,09,39,13.50
2016,03,13,09,40,13.40
2016,03,13,09,41,10.60
2016,03,13,09,42,18.60
2016,03,13,09,43,13.50
2016,03,13,09,44,13.70
2016,03,13,09,45,9.70
2016,03,13,09,46,7.70
2016,03,13,09,47,12.00
2016,03,13,09,48,11.90
2016,03,13,09,49,11.80
2016,03,13,09,50,14.60
2016,03,13,09,51,28.30
2016,03,13,09,52,10.30
2016,03,13,09,53,9.10
2016,03,13,09,54,12.00
2016,03,13,09,55,20.50
2016,03,13,09,56,25.50
2016,03,13,09,57,21.90
2016,03,13,09,58,23.70
2016,03,13,09,59,24.60
2016,03,13,10,00,20.00
2016,03,13,10,01,19.50
2016,03,13,10,02,24.30
2016,03,13,10,03,27.10
2016,03,13,10,04,32.00
2016,03,13,10,05,19.00
2016,03,13,10,06,17.80
2016,03,13,10,07,20.30
2016,03,13,10,08,17.40
2016,03,13,10,09,26.20
2016,03,13,10,10,22.30
2016,03,13,10,11,23.20
2016,03,13,10,12,11.20
2016,03,13,10,13,18.50
2016,03,13,10,14,15.90
2016,03,13,10,15,14.80
2016,03,13,10,16,17.40
2016,03,13,10,17,17.60
2016,03,13,10,18,13.00
2016,03,13,10,19,14.80
2016,03,13,10,20,14.20
2016,03,13,10,21,19.80
2016,03,13,10,22,20.20
2016,03,13,10,23,18.10
2016,03,13,10,24,24.30
2016,03,13,10,25,23.10
2016,03,13,10,26,18.40
2016,03,13,10,27,20.30
2016,03,13,10,28,18.90
2016,03,13,10,29,15.40
2016,03,13,10,30,22.30
2016,03,13,10,31,20.90
2016,03,13,10,32,18.80
2016,03,13,10,33,22.30
2016,03,13,10,34,16.50
2016,03,13,10,35,13.20
2016,03,13,10,36,22.40
2016,03,13,10,37,19.10
2016,03,13,10,38,18.00
2016,03,13,10,39,23.40
2016,03,13,10,40,25.30
2016,03,13,10,41,18.10
2016,03,13,10,42,26.30
2016,03,13,10,43,23.60
2016,03,13,10,44,18.20
2016,03,13,10,45,28.40
2016,03,13,10,46,26.30
2016,03,13,10,47,19.70
2016,03,13,10,48,25.00
2016,03,13,10,49,18.70
2016,03,13,10,50,24.40
2016,03,13,10,51,25.10
2016,03,13,10,52,23.90
2016,03,13,10,53,24.90
2016,03,13,10,54,18.60
2016,03,13,10,55,22.00
2016,03,13,10,56,21.30
2016,03,13,10,57,21.90
2016,03,13,10,58,24.50
2016,03,13,10,59,21.20
2016,03,13,11,00,25.40
2016,03,13,11,01,32.50
2016,03,13,11,02,23.30
2016,03,13,11,03,20.50
2016,03,13,11,04,25.00
2016,03,13,11,05,23.30
2016,03,13,11,06,23.10
2016,03,13,11,07,20.80
2016,03,13,11,08,27.20
2016,03,13,11,09,24.40
2016,03,13,11,10,27.60
2016,03,13,11,11,22.30
2016,03,13,11,12,25.30
2016,03,13,11,13,29.70
2016,03,13,11,14,23.40
2016,03,13,11,15,28.60
2016,03,13,11,16,21.00
2016,03,13,11,17,16.00
2016,03,13,11,18,27.80
2016,03,13,11,19,21.70
2016,03,13,11,20,20.60
2016,03,13,11,21,18.90
2016,03,13,11,22,23.60
2016,03,13,11,23,25.40
2016,03,13,11,24,26.30
2016,03,13,11,25,19.90
2016,03,13,11,26,17.80
2016,03,13,11,27,20.80
2016,03,13,11,28,15.70
2016,03,13,11,29,21.20
2016,03,13,11,30,24.80
2016,03,13,11,31,25.40
2016,03,13,11,32,25.20
2016,03,13,11,33,14.60
2016,03,13,11,34,31.80
2016,03,13,11,35,27.80
2016,03,13,11,36,25.80
2016,03,13,11,37,25.10
2016,03,13,11,38,23.50
2016,03,13,11,39,27.10
2016,03,13,11,40,26.90
2016,03,13,11,41,26.00
2016,03,13,11,42,22.10
2016,03,13,11,43,32.50
2016,03,13,11,44,30.90
2016,03,13,11,45,27.00
2016,03,13,11,46,22.00
2016,03,13,11,47,30.60
2016,03,13,11,48,19.50
2016,03,13,11,49,18.20
2016,03,13,11,50,23.10
2016,03,13,11,51,18.70
2016,03,13,11,52,17.40
2016,03,13,11,53,27.30
2016,03,13,11,54,34.30
2016,03,13,11,55,24.20
2016,03,13,11,56,27.40
2016,03,13,11,57,24.10
2016,03,13,11,58,19.50
2016,03,13,11,59,25.20
2016,03,13,12,00,19.00
2016,03,13,12,01,26.10
2016,03,13,12,02,16.90
2016,03,13,12,03,17.80
2016,03,13,12,04,14.60
2016,03,13,12,05,14.60
2016,03,13,12,06,17.60
2016,03,13,12,07,21.10
2016,03,13,12,08,27.20
2016,03,13,12,09,27.50
2016,03,13,12,10,19.60
2016,03,13,12,11,25.50
2016,03,13,12,12,31.90
2016,03,13,12,13,22.70
2016,03,13,12,14,20.30
2016,03,13,12,15,24.30
2016,03,13,12,16,28.70
2016,03,13,12,17,27.30
2016,03,13,12,18,22.00
2016,03,13,12,19,26.70
2016,03,13,12,20,27.10
2016,03,13,12,21,29.30
2016,03,13,12,22,20.20
2016,03,13,12,23,32.30
2016,03,13,12,24,29.20
2016,03,13,12,25,19.00
2016,03,13,12,26,26.00
2016,03,13,12,27,28.60
2016,03,13,12,28,26.30
2016,03,13,12,29,20.70
2016,03,13,12,30,28.30
2016,03,13,12,31,19.40
2016,03,13,12,32,21.90
2016,03,13,12,33,17.80
2016,03,13,12,34,27.50
2016,03,13,12,35,25.40
2016,03,13,12,36,19.60
2016,03,13,12,37,26.70
2016,03,13,12,38,23.30
2016,03,13,12,39,10.10
2016,03,13,12,40,15.10
2016,03,13,12,41,17.10
2016,03,13,12,42,21.20
2016,03,13,12,43,26.90
2016,03,13,12,44,19.80
2016,03,13,12,45,24.90
2016,03,13,12,46,19.70
2016,03,13,12,47,19.90
2016,03,13,12,48,23.90
2016,03,13,12,49,24.40
2016,03,13,12,50,19.10
2016,03,13,12,51,20.60
2016,03,13,12,52,21.40
2016,03,13,12,53,12.20
2016,03,13,12,54,25.90
2016,03,13,12,55,31.50
2016,03,13,12,56,24.00
2016,03,13,12,57,13.50
2016,03,13,12,58,30.20
2016,03,13,12,59,30.50
2016,03,13,13,00,30.70
2016,03,13,13,01,41.80
2016,03,13,13,02,33.70
2016,03,13,13,03,28.10
2016,03,13,13,04,18.10
2016,03,13,13,05,23.30
2016,03,13,13,06,28.80
2016,03,13,13,07,36.20
2016,03,13,13,08,23.00
2016,03,13,13,09,28.70
2016,03,13,13,10,23.40
2016,03,13,13,11,33.70
2016,03,13,13,12,32.00
2016,03,13,13,13,29.20
2016,03,13,13,14,25.00
2016,03,13,13,15,22.90
2016,03,13,13,16,25.50
2016,03,13,13,17,30.60
2016,03,13,13,18,20.40
2016,03,13,13,19,32.60
2016,03,13,13,20,32.00
2016,03,13,13,21,29.80
2016,03,13,13,22,27.10
2016,03,13,13,23,36.10
2016,03,13,13,24,37.40
2016,03,13,13,25,28.30
2016,03,13,13,26,22.10
2016,03,13,13,27,19.00
2016,03,13,13,28,20.90
2016,03,13,13,29,35.10
2016,03,13,13,30,29.70
2016,03,13,13,31,29.30
2016,03,13,13,32,24.80
2016,03,13,13,33,28.10
2016,03,13,13,34,27.50
2016,03,13,13,35,23.70
2016,03,13,13,36,19.90
2016,03,13,13,37,16.20
2016,03,13,13,38,24.30
2016,03,13,13,39,31.70
2016,03,13,13,40,20.40
2016,03,13,13,41,21.60
2016,03,13,13,42,31.10
2016,03,13,13,43,30.20
2016,03,13,13,44,24.20
2016,03,13,13,45,19.80
2016,03,13,13,46,27.20
2016,03,13,13,47,28.40
2016,03,13,13,48,25.20
2016,03,13,13,49,18.80
2016,03,13,13,50,25.50
2016,03,13,13,51,25.30
2016,03,13,13,52,28.00
2016,03,13,13,53,29.90
2016,03,13,13,54,32.00
2016,03,13,13,55,24.90
2016,03,13,13,56,14.80
2016,03,13,13,57,27.60
2016,03,13,13,58,16.50
2016,03,13,13,59,27.90
2016,03,13,14,00,27.20
2016,03,13,14,01,23.80
2016,03,13,14,02,22.60
2016,03,13,14,03,30.20
2016,03,13,14,04,28.60
2016,03,13,14,05,25.30
2016,03,13,14,06,26.90
2016,03,13,14,07,26.20
2016,03,13,14,08,27.90
2016,03,13,14,09,24.40
2016,03,13,14,10,24.40
2016,03,13,14,11,30.00
2016,03,13,14,12,33.10
2016,03,13,14,13,19.20
2016,03,13,14,14,20.80
2016,03,13,14,15,21.40
2016,03,13,14,16,21.10
2016,03,13,14,17,19.00
2016,03,13,14,18,20.50
2016,03,13,14,19,25.70
2016,03,13,14,20,15.80
2016,03,13,14,21,16.90
2016,03,13,14,22,23.30
2016,03,13,14,23,19.30
2016,03,13,14,24,29.30
2016,03,13,14,25,16.70
2016,03,13,14,26,20.10
2016,03,13,14,27,30.70
2016,03,13,14,28,24.40
2016,03,13,14,29,32.30
2016,03,13,14,30,28.00
2016,03,13,14,31,26.40
2016,03,13,14,32,34.80
2016,03,13,14,33,32.70
2016,03,13,14,34,27.90
2016,03,13,14,35,32.10
2016,03,13,14,36,30.50
2016,03,13,14,37,29.60
2016,03,13,14,38,29.50
2016,03,13,14,39,45.90
2016,03,13,14,40,33.10
2016,03,13,14,41,33.60
2016,03,13,14,42,23.90
2016,03,13,14,43,25.20
2016,03,13,14,44,34.20
2016,03,13,14,45,27.00
2016,03,13,14,46,32.40
2016,03,13,14,47,25.70
2016,03,13,14,48,27.90
2016,03,13,14,49,34.20
2016,03,13,14,50,30.70
2016,03,13,14,51,24.20
2016,03,13,14,52,28.90
2016,03,13,14,53,30.00
2016,03,13,14,54,33.30
2016,03,13,14,55,33.60
2016,03,13,14,56,30.00
2016,03,13,14,57,29.20
2016,03,13,14,58,35.70
2016,03,13,14,59,39.70
2016,03,13,15,00,23.70
2016,03,13,15,01,21.10
2016,03,13,15,02,24.70
2016,03,13,15,03,21.70
2016,03,13,15,04,16.20
2016,03,13,15,05,30.30
2016,03,13,15,06,18.80
2016,03,13,15,07,22.50
2016,03,13,15,08,27.70
2016,03,13,15,09,34.80
2016,03,13,15,10,31.60
2016,03,13,15,11,42.20
2016,03,13,15,12,32.70
2016,03,13,15,13,36.90
2016,03,13,15,14,38.50
2016,03,13,15,15,31.90
2016,03,13,15,16,29.70
2016,03,13,15,17,30.90
2016,03,13,15,18,31.00
2016,03,13,15,19,40.20
2016,03,13,15,20,41.50
2016,03,13,15,21,29.80
2016,03,13,15,22,30.80
2016,03,13,15,23,36.40
2016,03,13,15,24,36.20
2016,03,13,15,25,36.00
2016,03,13,15,26,35.80
2016,03,13,15,27,32.50
2016,03,13,15,28,34.40
2016,03,13,15,29,37.60
2016,03,13,15,30,35.20
2016,03,13,15,31,31.00
2016,03,13,15,32,33.40
2016,03,13,15,33,30.60
2016,03,13,15,34,25.70
2016,03,13,15,35,26.20
2016,03,13,15,36,27.60
2016,03,13,15,37,31.70
2016,03,13,15,38,27.90
2016,03,13,15,39,24.60
2016,03,13,15,40,19.90
2016,03,13,15,41,23.40
2016,03,13,15,42,23.50
2016,03,13,15,43,24.60
2016,03,13,15,44,26.40
2016,03,13,15,45,21.10
2016,03,13,15,46,23.70
2016,03,13,15,47,27.60
2016,03,13,15,48,24.40
2016,03,13,15,49,28.60
2016,03,13,15,50,26.10
2016,03,13,15,51,32.40
2016,03,13,15,52,27.90
2016,03,13,15,53,25.30
2016,03,13,15,54,28.50
2016,03,13,15,55,26.30
2016,03,13,15,56,25.90
2016,03,13,15,57,25.30
2016,03,13,15,58,26.90
2016,03,13,15,59,22.40
2016,03,13,16,00,25.00
2016,03,13,16,01,27.70
2016,03,13,16,02,24.10
2016,03,13,16,03,19.30
2016,03,13,16,04,14.00
2016,03,13,16,05,19.40
2016,03,13,16,06,16.80
2016,03,13,16,07,15.00
2016,03,13,16,08,12.90
2016,03,13,16,09,18.20
2016,03,13,16,10,12.90
2016,03,13,16,11,14.90
2016,03,13,16,12,17.10
2016,03,13,16,13,21.90
2016,03,13,16,14,24.20
2016,03,13,16,15,27.50
2016,03,13,16,16,28.60
2016,03,13,16,17,30.70
2016,03,13,16,18,29.00
2016,03,13,16,19,25.70
2016,03,13,16,20,31.80
2016,03,13,16,21,23.80
2016,03,13,16,22,29.20
2016,03,13,16,23,29.60
2016,03,13,16,24,23.00
2016,03,13,16,25,23.00
2016,03,13,16,26,20.70
2016,03,13,16,27,26.80
2016,03,13,16,28,22.30
2016,03,13,16,29,41.50
2016,03,13,16,30,27.20
2016,03,13,16,31,22.30
2016,03,13,16,32,22.50
2016,03,13,16,33,25.30
2016,03,13,16,34,29.90
2016,03,13,16,35,42.70
2016,03,13,16,36,38.00
2016,03,13,16,37,29.10
2016,03,13,16,38,27.40
2016,03,13,16,39,33.60
2016,03,13,16,40,24.80
2016,03,13,16,41,23.60
2016,03,13,16,42,21.10
2016,03,13,16,43,26.40
2016,03,13,16,44,20.60
2016,03,13,16,45,29.50
2016,03,13,16,46,29.20
2016,03,13,16,47,26.90
2016,03,13,16,48,24.70
2016,03,13,16,49,25.60
2016,03,13,16,50,25.70
2016,03,13,16,51,24.00
2016,03,13,16,52,25.00
2016,03,13,16,53,21.20
2016,03,13,16,54,41.70
2016,03,13,16,55,31.20
2016,03,13,16,56,42.20
2016,03,13,16,57,37.70
2016,03,13,16,58,34.10
2016,03,13,16,59,36.70
2016,03,13,17,00,40.00
2016,03,13,17,01,34.30
2016,03,13,17,02,37.70
2016,03,13,17,03,32.10
2016,03,13,17,04,32.20
2016,03,13,17,05,28.60
2016,03,13,17,06,29.60
2016,03,13,17,07,35.80
2016,03,13,17,08,33.70
2016,03,13,17,09,29.20
2016,03,13,17,10,46.60
2016,03,13,17,11,38.20
2016,03,13,17,12,36.20
2016,03,13,17,13,40.80
2016,03,13,17,14,44.40
2016,03,13,17,15,45.40
2016,03,13,17,16,42.10
2016,03,13,17,17,43.70
2016,03,13,17,18,40.70
2016,03,13,17,19,40.70
2016,03,13,17,20,33.40
2016,03,13,17,21,40.90
2016,03,13,17,22,41.60
2016,03,13,17,23,37.20
2016,03,13,17,24,40.20
2016,03,13,17,25,51.80
2016,03,13,17,26,35.00
2016,03,13,17,27,44.70
2016,03,13,17,28,35.30
2016,03,13,17,29,37.40
2016,03,13,17,30,36.00
2016,03,13,17,31,32.00
2016,03,13,17,32,35.60
2016,03,13,17,33,34.40
2016,03,13,17,34,40.50
2016,03,13,17,35,25.70
2016,03,13,17,36,32.70
2016,03,13,17,37,26.00
2016,03,13,17,38,31.80
2016,03,13,17,39,29.10
2016,03,13,17,40,28.10
2016,03,13,17,41,33.50
2016,03,13,17,42,33.80
2016,03,13,17,43,38.90
2016,03,13,17,44,33.90
2016,03,13,17,45,32.30
2016,03,13,17,46,21.70
2016,03,13,17,47,22.10
2016,03,13,17,48,27.10
2016,03,13,17,49,27.20
2016,03,13,17,50,21.60
2016,03,13,17,51,34.80
2016,03,13,17,52,31.00
2016,03,13,17,53,25.80
2016,03,13,17,54,27.00
2016,03,13,17,55,30.60
2016,03,13,17,56,28.80
2016,03,13,17,57,29.70
2016,03,13,17,58,23.20
2016,03,13,17,59,26.50
2016,03,13,18,00,30.20
2016,03,13,18,01,30.70
2016,03,13,18,02,31.20
2016,03,13,18,03,34.60
2016,03,13,18,04,30.50
2016,03,13,18,05,28.90
2016,03,13,18,06,27.30
2016,03,13,18,07,28.90
2016,03,13,18,08,26.60
2016,03,13,18,09,22.20
2016,03,13,18,10,22.00
2016,03,13,18,11,18.40
2016,03,13,18,12,21.80
2016,03,13,18,13,25.00
2016,03,13,18,14,16.90
2016,03,13,18,15,20.60
2016,03,13,18,16,18.20
2016,03,13,18,17,35.50
2016,03,13,18,18,34.80
2016,03,13,18,19,28.10
2016,03,13,18,20,27.80
2016,03,13,18,21,33.40
2016,03,13,18,22,14.90
2016,03,13,18,23,19.50
2016,03,13,18,24,17.10
2016,03,13,18,25,22.90
2016,03,13,18,26,14.60
2016,03,13,18,27,24.80
2016,03,13,18,28,20.50